Location: Les Moreaux
(47.2278°N, 1.4966°E)
Time: 06:54:45
(UTC+00:00)

ISS - Pass Details

Date: 19 May 2025
Orbit: 415 x 416 km, 51.6° (Epoch: 18 June)

Event Time Altitude Azimuth Distance (km) Brightness Sun altitude
Rises 21:50:45 0° 294° (WNW) 2,361 1.0 -17.6°
Reaches altitude 10° 21:52:51 10° 295° (WNW) 1,495 -0.2 -17.8°
Maximum altitude 21:56:13 88° 25° (NNE) 421 -3.9 -18.0°
Enters shadow 21:56:50 57° 111° (ESE) 497 -3.7 -18.1°
